Time,TemperatureF,DewpointF,PressureIn,WindDirection,WindDirectionDegrees,WindSpeedMPH,WindSpeedGustMPH,Humidity,HourlyPrecipIn,Conditions,Clouds,dailyrainin,SoftwareType,DateUTC
2013-03-17 00:00:00,21.6,17.8,29.94,West,269,3.0,9.0,85,0.00,,,0.00,Wunderground v.1.15,2013-03-17 04:00:00,
2013-03-17 00:30:00,21.0,17.5,29.96,West,273,4.0,9.0,86,0.00,,,0.00,Wunderground v.1.15,2013-03-17 04:30:00,
2013-03-17 01:00:00,20.6,17.1,29.95,West,269,3.0,9.0,86,0.00,,,0.00,Wunderground v.1.15,2013-03-17 05:00:00,
2013-03-17 01:30:00,20.1,16.6,29.98,West,275,5.0,9.0,86,0.00,,,0.00,Wunderground v.1.15,2013-03-17 05:30:00,
2013-03-17 02:00:00,20.6,17.1,29.99,West,279,3.0,9.0,86,0.00,,,0.00,Wunderground v.1.15,2013-03-17 06:00:00,
2013-03-17 02:30:00,20.3,16.5,30.00,West,267,5.0,5.0,85,0.00,,,0.00,Wunderground v.1.15,2013-03-17 06:30:00,
2013-03-17 03:00:00,18.0,14.5,29.99,West,263,4.0,9.0,86,0.00,,,0.00,Wunderground v.1.15,2013-03-17 07:00:00,
2013-03-17 03:30:00,19.8,16.3,30.00,West,261,5.0,5.0,86,0.00,,,0.00,Wunderground v.1.15,2013-03-17 07:30:00,
2013-03-17 04:00:00,19.9,16.1,29.99,West,261,3.0,9.0,85,0.00,,,0.00,Wunderground v.1.15,2013-03-17 08:00:00,
2013-03-17 04:30:00,20.8,17.5,30.00,West,261,3.0,9.0,87,0.00,,,0.00,Wunderground v.1.15,2013-03-17 08:30:00,
2013-03-17 05:00:00,21.1,18.1,30.01,West,261,2.0,2.0,88,0.00,,,0.00,Wunderground v.1.15,2013-03-17 09:00:00,
2013-03-17 05:30:00,21.4,18.7,30.03,West,261,1.0,1.0,89,0.00,,,0.00,Wunderground v.1.15,2013-03-17 09:30:00,
2013-03-17 06:00:00,21.5,19.0,30.04,West,261,0.0,9.0,90,0.00,,,0.00,Wunderground v.1.15,2013-03-17 10:00:00,
2013-03-17 06:30:00,22.1,19.9,30.06,West,267,3.0,3.0,91,0.00,,,0.00,Wunderground v.1.15,2013-03-17 10:30:00,
2013-03-17 07:00:00,22.5,20.3,30.06,West,269,2.0,9.0,91,0.00,,,0.00,Wunderground v.1.15,2013-03-17 11:00:00,
2013-03-17 07:30:00,22.7,20.5,30.07,West,269,0.0,9.0,91,0.00,,,0.00,Wunderground v.1.15,2013-03-17 11:30:00,
2013-03-17 08:00:00,22.8,20.6,30.08,West,269,0.0,9.0,91,0.00,,,0.00,Wunderground v.1.15,2013-03-17 12:00:00,
2013-03-17 08:30:00,23.1,20.9,30.11,West,269,0.0,9.0,91,0.00,,,0.00,Wunderground v.1.15,2013-03-17 12:30:00,
2013-03-17 09:00:00,23.3,21.1,30.12,WNW,289,3.0,9.0,91,0.00,,,0.00,Wunderground v.1.15,2013-03-17 13:00:00,
2013-03-17 09:30:00,23.8,20.8,30.14,NNW,335,3.0,9.0,88,0.00,,,0.00,Wunderground v.1.15,2013-03-17 13:30:00,
2013-03-17 10:00:00,25.2,21.6,30.15,NNW,348,6.0,9.0,86,0.00,,,0.00,Wunderground v.1.15,2013-03-17 14:00:00,
2013-03-17 10:30:00,24.9,20.2,30.16,NW,306,4.0,4.0,82,0.00,,,0.00,Wunderground v.1.15,2013-03-17 14:30:00,
2013-03-17 11:00:00,26.8,19.6,30.16,NNW,348,6.0,9.0,74,0.00,,,0.00,Wunderground v.1.15,2013-03-17 15:00:00,
2013-03-17 11:30:00,27.1,19.6,30.18,NNW,338,6.0,9.0,73,0.00,,,0.00,Wunderground v.1.15,2013-03-17 15:30:00,
2013-03-17 12:00:00,27.6,18.1,30.18,WNW,301,6.0,9.0,67,0.00,,,0.00,Wunderground v.1.15,2013-03-17 16:00:00,
2013-03-17 12:30:00,28.3,19.8,30.19,NW,317,6.0,9.0,70,0.00,,,0.00,Wunderground v.1.15,2013-03-17 16:30:00,
2013-03-17 13:00:00,28.5,18.2,30.19,WNW,302,7.0,9.0,65,0.00,,,0.00,Wunderground v.1.15,2013-03-17 17:00:00,
2013-03-17 13:30:00,28.3,19.8,30.20,NNW,348,6.0,6.0,70,0.00,,,0.00,Wunderground v.1.15,2013-03-17 17:30:00,
2013-03-17 14:00:00,28.9,20.0,30.19,WNW,287,8.0,10.0,69,0.00,,,0.00,Wunderground v.1.15,2013-03-17 18:00:00,
2013-03-17 14:30:00,28.4,21.5,30.20,North,349,9.0,10.0,75,0.00,,,0.00,Wunderground v.1.15,2013-03-17 18:30:00,
2013-03-17 15:00:00,28.9,21.7,30.19,NNW,335,5.0,9.0,74,0.00,,,0.00,Wunderground v.1.15,2013-03-17 19:00:00,
2013-03-17 15:30:00,29.8,22.2,30.19,North,355,6.0,9.0,73,0.00,,,0.00,Wunderground v.1.15,2013-03-17 19:30:00,
2013-03-17 16:00:00,28.9,22.0,30.21,North,360,6.0,6.0,75,0.00,,,0.00,Wunderground v.1.15,2013-03-17 20:00:00,
2013-03-17 16:30:00,28.5,21.3,30.21,NNW,344,4.0,9.0,74,0.00,,,0.00,Wunderground v.1.15,2013-03-17 20:30:00,
2013-03-17 17:00:00,28.7,20.5,30.21,NNW,340,4.0,9.0,71,0.00,,,0.00,Wunderground v.1.15,2013-03-17 21:00:00,
2013-03-17 18:30:00,27.9,18.4,30.24,North,5,5.0,5.0,67,0.00,,,0.00,Wunderground v.1.15,2013-03-17 22:30:00,
2013-03-17 19:00:00,27.1,17.9,30.24,North,5,4.0,9.0,68,0.00,,,0.00,Wunderground v.1.15,2013-03-17 23:00:00,
2013-03-17 19:30:00,26.1,17.3,30.25,North,5,3.0,3.0,69,0.00,,,0.00,Wunderground v.1.15,2013-03-17 23:30:00,
2013-03-17 20:00:00,25.2,16.5,30.26,North,5,4.0,4.0,69,0.00,,,0.00,Wunderground v.1.15,2013-03-18 00:00:00,
2013-03-17 20:30:00,24.6,16.2,30.27,North,5,4.0,9.0,70,0.00,,,0.00,Wunderground v.1.15,2013-03-18 00:30:00,
2013-03-17 21:30:00,23.4,15.4,30.28,North,5,3.0,9.0,71,0.00,,,0.00,Wunderground v.1.15,2013-03-18 01:30:00,
2013-03-17 22:00:00,23.2,16.1,30.29,North,5,2.0,2.0,74,0.00,,,0.00,Wunderground v.1.15,2013-03-18 02:00:00,
2013-03-17 22:30:00,22.4,15.4,30.30,North,5,2.0,9.0,74,0.00,,,0.00,Wunderground v.1.15,2013-03-18 02:30:00,
2013-03-17 23:00:00,21.9,14.9,30.30,North,5,1.0,1.0,74,0.00,,,0.00,Wunderground v.1.15,2013-03-18 03:00:00,
2013-03-17 23:30:00,21.5,14.2,30.30,North,5,0.0,9.0,73,0.00,,,0.00,Wunderground v.1.15,2013-03-18 03:30:00,